Location: Christchurch
(43.5330°S, 172.6330°E)
Time: 22:17:03
(UTC+13:00)

Cosmos 1151 Rocket - Pass Details

Date: 24 January 2019
Orbit: 591 x 617 km, 82.5° (Epoch: 15 February)

Event Time Altitude Azimuth Distance (km) Brightness Sun altitude
Rises 21:49:45 0° 1° (N) 2,828 6.1 -7.8°
Reaches altitude 10° 21:51:56 10° 3° (N) 1,938 5.2 -8.2°
Maximum altitude 21:56:11 66° 85° (E) 666 3.0 -8.8°
Drops below altitude 10° 22:00:31 10° 166° (SSE) 1,980 6.0 -9.4°
Sets 22:02:47 0° 168° (SSE) 2,896 6.9 -9.7°
